Rbgn^[z[y[W
メイン
   新天体発見情報
     Comet C/2006 A1 (Pojmanski)
投稿するにはまず登録を

スレッド表示 | 古いものから 前のトピック | 次のトピック | 下へ
投稿者 スレッド
佐藤裕久
投稿日時: 2006-1-7 0:39
モデレータ
登録日: 2005-6-12
居住地: 日本
投稿: 2701
オンライン
Comet C/2006 A1 (Pojmanski)

Grzegorz Pojmanski (Warsaw大学天文台)は、2006年1月1日と4日にチリのLas Campanasにある
全天自動掃天(ASAS)の180-mm f/2.8望遠鏡で得たCCD画像から1′のコマのある彗星を発見した。
なお、2005年12月29日の発見前のASASの画像にも写っていた。
S. Roland (Montevideo, ウルグアイ)は、0.46-m望遠鏡により、コマが約1′ほどの彗星である
ことを確認した。また、K. Cernisは、SWAN/SOHOのWebサイトに2005年12月25日から3日間写って
いると報告した。

発見位置は次のとおり、

     2005/6 UT           R.A. (2000) Decl.       Mag.   Observer
     Dec. 25         22 09.0       -71 07               SWAN
          29         21 52.6       -69 03                 "
          29.03145   21 50 29      -69 40.6      13.2   ASAS
     Jan.  1         21 42.4       -68 23               SWAN
           1.04388   21 40 28      -68 36.5      12.5   ASAS
           4.03225   21 31 33      -67 31.2      12.0     "
           4.03734   21 31 33      -67 31.1      12.0     "
           4.99875   21 28 51.64   -67 09 39.9   14.6   Roland
           5.00339   21 28 50.91   -67 09 33.7   14.6     "
           5.01031   21 28 49.73   -67 09 23.9   14.7     "
           5.01681   21 28 48.72   -67 09 15.0   14.6     "
           5.02197   21 28 47.83   -67 09 07.9   14.8     "
           5.03106   21 28 46.33   -67 08 55.5   14.5     "
           5.03985   21 28 44.88   -67 08 43.5   14.7     "
           5.04632   21 28 43.71   -67 08 35.7   14.2     "
           5.05587   21 28 42.25   -67 08 21.4   14.7     "
           5.07266   21 28 39.51   -67 07 58.5   14.5     "

暫定放物線軌道要素と位置推算表は次のとおり、

     T = 2006 Feb. 22.671 TT          Peri. = 350.499
                                      Node  = 212.275   2000.0
     q = 0.56748 AU                   Incl. =  93.230

2006 TT     R. A. (2000) Decl.   Delta     r    Elong. Phase   Mag.
Jan.  5    21 28.87   -67 09.7   1.520   1.164   50.0   40.3   11.4
     10    21 16.13   -65 14.8   1.484   1.084   46.9   41.5   11.1
     15    21 04.83   -63 12.5   1.441   1.003   44.1   43.0   10.8
     20    20 54.47   -60 59.3   1.389   0.924   41.6   45.0   10.5
     25    20 44.69   -58 29.1   1.328   0.846   39.5   47.8   10.1
     30    20 35.38   -55 32.9   1.259   0.773   37.9   51.5    9.7
Feb.  4    20 26.66   -51 57.4   1.180   0.705   36.6   56.5    9.2
      9    20 19.03   -47 23.2   1.093   0.646   35.7   63.1    8.8
     14    20 13.42   -41 25.3   1.002   0.601   35.1   71.1    8.3
     19    20 11.08   -33 35.0   0.913   0.574   34.8   79.8    8.0
     24    20 13.24   -23 31.2   0.836   0.568   35.0   87.4    7.8

Computer: Green

(IAUC 8653、8654)
スレッド表示 | 古いものから 前のトピック | 次のトピック | トップ

投稿するにはまず登録を
 
© 1999 Tsutomu Seki.